Regional Weather Roundup
Issued by NWS

Home | Current Version | Previous Version | Graphics & Text | Print | Product List | Glossary On
Versions: 1 2 3 4 5 6 7 8 9 10 11 12 13 14 15 16 17 18 19 20 21 22 23 24 25 26 27 28 29 30 31 32 33 34 35 36 37 38 39 40 41 42 43 44 45 46 47 48 49 50
000
ASUS43 KMKX 260621
RWRWI

WISCONSIN REGIONAL WEATHER ROUNDUP
NATIONAL WEATHER SERVICE MILWAUKEE/SULLIVAN WI
1200 AM CST SUN FEB 26 2017

NOTE: "FAIR" INDICATES FEW OR NO CLOUDS BELOW 12,000 FEET WITH NO
SIGNIFICANT WEATHER AND/OR OBSTRUCTIONS TO VISIBILITY.

WIZ001-002-006>008-014>016-023>028-260700-
NORTHWEST WISCONSIN

CITY           SKY/WX    TMP DP  RH WIND       PRES   REMARKS
SUPERIOR ARPT  CLOUDY    26  26  97 CALM      29.73F
6HR MIN TEMP:  26; 6HR MAX TEMP:  29;

ASHLAND        PTCLDY    25  17  72 S7        29.74F WCI  17
6HR MIN TEMP:  21; 6HR MAX TEMP:  28; 6HR PCP: TRACE;

HAYWARD        CLOUDY    26  18  71 SW9       29.75F WCI  17
6HR MIN TEMP:  25; 6HR MAX TEMP:  28;

SIREN          CLOUDY    27  18  69 SW12G17   29.76F WCI  17
6HR MIN TEMP:  27; 6HR MAX TEMP:  30;

CUMBERLAND     CLOUDY    23  16  74 SW16      29.78F WCI  10
RICE LAKE      CLOUDY    22  14  71 S9        29.82S WCI  12
6HR MIN TEMP:  22; 6HR MAX TEMP:  29;

CHETEK         CLOUDY    21  14  73 S9        29.82S WCI  11
6HR MIN TEMP:  21; 6HR MAX TEMP:  28;

LADYSMITH      CLOUDY    21  16  79 S9        29.81F WCI  11
6HR MIN TEMP:  21; 6HR MAX TEMP:  25;

EAU CLAIRE     CLOUDY    20  13  74 SW10      29.86S WCI   9
6HR MIN TEMP:  19; 6HR MAX TEMP:  26;

MENOMONIE      CLOUDY    22  13  70 S6        29.86S WCI  14
6HR MIN TEMP:  20; 6HR MAX TEMP:  29;

NEW RICHMOND   CLOUDY    23  15  73 S13       29.81F WCI  11
6HR MIN TEMP:  22; 6HR MAX TEMP:  30;

OSCEOLA        MOCLDY    25  18  74 S6        29.83F WCI  18
6HR MIN TEMP:  25; 6HR MAX TEMP:  31;

$$

WIZ003>005-009-010-017-018-260700-
NORTH CENTRAL WISCONSIN

CITY           SKY/WX    TMP DP  RH WIND       PRES   REMARKS
MANITOWISH WTR MOCLDY    17  12  82 SW6       29.74F WCI   8
6HR MIN TEMP:   8; 6HR MAX TEMP:  19;

ARBOR VITAE    CLEAR     17  12  78 S6          N/A  WCI   9
6HR MIN TEMP:  14; 6HR MAX TEMP:  22;

WOODRUFF       CLEAR     17  12  78 S6          N/A  WCI   9
6HR MIN TEMP:  14; 6HR MAX TEMP:  22;

RHINELANDER    MOCLDY    17   9  70 SW8       29.79F WCI   7
6HR MIN TEMP:  14; 6HR MAX TEMP:  19;

EAGLE RIVER    CLOUDY    17  10  72 SW7       29.76F WCI   8
6HR MIN TEMP:   6; 6HR MAX TEMP:  19;

LAND O LAKES   CLOUDY    18  12  78 S3        29.77F
6HR MIN TEMP:   9; 6HR MAX TEMP:  18;

PHILLIPS       CLOUDY    19  14  81 SW7G16    29.77F WCI  10
6HR MIN TEMP:  18; 6HR MAX TEMP:  22;

TOMAHAWK       CLOUDY    17  11  79 S3        29.81S
6HR MIN TEMP:  15; 6HR MAX TEMP:  20;

MEDFORD        CLOUDY    16  11  79 SW12      29.81F WCI   3
6HR MIN TEMP:  15; 6HR MAX TEMP:  20;

MERRILL        NOT AVBL
$$

WIZ029-030-035-036-043>047-260700-
CENTRAL WISCONSIN

CITY           SKY/WX    TMP DP  RH WIND       PRES   REMARKS
WAUSAU         CLOUDY    17  11  77 S6        29.85F WCI   9
6HR MIN TEMP:  17; 6HR MAX TEMP:  22;

MOSINEE        CLOUDY    18  12  79 SW10      29.87F WCI   6
MARSHFIELD     MOCLDY    17  11  77 SW12      29.86S WCI   4
6HR MIN TEMP:  17; 6HR MAX TEMP:  20;

STEVENS POINT  PTCLDY    11   7  83 S5        29.90F WCI   3
6HR MIN TEMP:  10; 6HR MAX TEMP:  21;

WAUPACA        CLEAR     14   8  78 CALM      29.93S
6HR MIN TEMP:  13; 6HR MAX TEMP:  21;

WAUTOMA        PTCLDY    15  10  80 SW5       29.94  WCI   8
6HR MIN TEMP:  13; 6HR MAX TEMP:  18;

WISC RAPIDS    MOCLDY    18  12  77 SW10      29.91F WCI   6
6HR MIN TEMP:  16; 6HR MAX TEMP:  22;

CAMP DOUGLAS   PTCLDY    20  11  69 S6        29.92F WCI  12
6HR MIN TEMP:  17; 6HR MAX TEMP:  21;

$$

WIZ011>013-019>022-031-037>040-048>050-260700-
NORTHEAST WISCONSIN

CITY           SKY/WX    TMP DP  RH WIND       PRES   REMARKS
ANTIGO         MOCLDY    14   9  79 SW10      29.83S WCI   1
6HR MIN TEMP:  12; 6HR MAX TEMP:  18;

SHAWANO        CLEAR     17  10  72 CALM      29.90F
6HR MIN TEMP:  17; 6HR MAX TEMP:  22;

OCONTO         CLEAR     18   8  67 SW7       29.91S WCI   8
6HR MIN TEMP:  16; 6HR MAX TEMP:  20;

STURGEON BAY   CLEAR     18  10  71 SW12      29.91F WCI   5
6HR MIN TEMP:  16; 6HR MAX TEMP:  20;

GREEN BAY      CLEAR     19  11  70 SW7       29.93S WCI  10
6HR MIN TEMP:  19; 6HR MAX TEMP:  21;

MANITOWOC      CLEAR     19  11  70 W10       29.95S WCI   7
6HR MIN TEMP:  17; 6HR MAX TEMP:  19;

APPLETON       CLEAR     19  10  68 SW12      29.91S WCI   7
CLINTONVILLE   MOCLDY    14   9  79 SW7       29.91S WCI   4
OSHKOSH        CLEAR     18  10  71 SW8       29.94S WCI   8
6HR MIN TEMP:  18; 6HR MAX TEMP:  20;

$$

WIZ032>034-041-042-053>061-260700-
SOUTHWEST WISCONSIN

CITY           SKY/WX    TMP DP  RH WIND       PRES   REMARKS
LA CROSSE      CLOUDY    24  15  68 S8        29.93F WCI  15
6HR MIN TEMP:  22; 6HR MAX TEMP:  26;

SPARTA         CLOUDY    21  14  73 S3        29.93F
6HR MIN TEMP:  17; 6HR MAX TEMP:  23;

VIROQUA        CLOUDY    21  15  78 SW10      29.92F WCI  10
6HR MIN TEMP:  18; 6HR MAX TEMP:  21;

BOSCOBEL       CLOUDY    22  15  75 SW6       29.99F WCI  14
6HR MIN TEMP:  20; 6HR MAX TEMP:  26;

PRAIRIE DU CHI MOCLDY    25  16  68 CALM      29.97F
6HR MIN TEMP:  22; 6HR MAX TEMP:  25;

PLATTEVILLE    CLOUDY    23  20  89 S6        29.99S WCI  15
6HR MIN TEMP:  19; 6HR MAX TEMP:  23;

$$

WIZ056-057-062-063-064-067-068-260700-
SOUTH CENTRAL WISCONSIN

CITY           SKY/WX    TMP DP  RH WIND       PRES   REMARKS
REEDSBURG      CLOUDY    19  14  79 S7        29.95F WCI  10
6HR MIN TEMP:  19; 6HR MAX TEMP:  23;

BARABOO/DELLS  CLOUDY    20  13  75 SW5       29.95F WCI  13
6HR MIN TEMP:  18; 6HR MAX TEMP:  21;

LONE ROCK      CLOUDY    22  14  71 CALM      29.99F
6HR MIN TEMP:  19; 6HR MAX TEMP:  24;

MINERAL POINT  CLOUDY    23  19  86 S3        29.97S
MADISON        MOCLDY    20  14  77 CALM      29.98F
6HR MIN TEMP:  19; 6HR MAX TEMP:  22;

MIDDLETON      CLOUDY    20  16  82 CALM      29.98F
6HR MIN TEMP:  19; 6HR MAX TEMP:  22;

WATERTOWN      CLEAR     17  13  86 SW3       29.98F
6HR MIN TEMP:  17; 6HR MAX TEMP:  21;

MONROE         CLOUDY    21  18  86 S7        29.98S WCI  13
JANESVILLE     MOCLDY    21  16  79 S5        30.01S WCI  15
$$

WIZ051-052-058>065-066-070>072-260700-
SOUTHEAST WISCONSIN

CITY           SKY/WX    TMP DP  RH WIND       PRES   REMARKS
MILWAUKEE      PTCLDY    24  12  60 W8        30.00S WCI  15
6HR MIN TEMP:  24; 6HR MAX TEMP:  24;

WAUKESHA       CLEAR     19  12  73 SW6       30.00S WCI  11
MILWAUKEE/TIMM PTCLDY    21  12  68 W9        30.00S WCI  11
RACINE         CLOUDY    23  13  65 W7        30.02S WCI  15
6HR MIN TEMP:  22; 6HR MAX TEMP:  23;

KENOSHA        CLEAR     23  14  68 W8        30.01S WCI  14
6HR MIN TEMP:  21; 6HR MAX TEMP:  23;

FOND DU LAC    CLEAR     19  10  68 SW10      29.96F WCI   7
6HR MIN TEMP:  15; 6HR MAX TEMP:  21;

SHEBOYGAN      CLEAR     19  10  68 W12       29.95F WCI   7
6HR MIN TEMP:  18; 6HR MAX TEMP:  20;

WEST BEND      CLOUDY    21  16  79 W3        29.97S
JUNEAU         CLEAR     16  13  86 S3        29.98S
6HR MIN TEMP:  15; 6HR MAX TEMP:  20;

$$

LSZ147-162-260700-
LAKE SUPERIOR

STATION/POSITION TIME  TEMP    WIND        PRES    WAVE
                       AIR SEA DIR/SP/G            HT/PER
                 (UTC) (F)     (DEG/KT/KT) (MB)    (FT/S)
DEVILS ISLAND    0600   28     230/ 14/ 20 1007.6F
PORT WING        0540   26      CALM  /  2 1007.5F
SAXON HARBOR     0540   26     190/  4/  8 1007.5F
$$

LMZ867-665-643>646-260700-
LAKE MICHIGAN

STATION/POSITION TIME  TEMP    WIND        PRES    WAVE
                       AIR SEA DIR/SP/G            HT/PER
                 (UTC) (F)     (DEG/KT/KT) (MB)    (FT/S)
NORTHPORT PIER   0540   20        CALM     1012.2S
SISTER BAY       0535   20        CALM       N/A
KEWAUNEE LAK



USA.gov is the U.S. government's official web portal to all federal, state and local government web resources and services.